TimeEST,TemperatureF,Dew PointF,Humidity,Sea Level PressureIn,VisibilityMPH,Wind Direction,Wind SpeedMPH,Gust SpeedMPH,PrecipitationIn,Events,Conditions,WindDirDegrees,DateUTC
12:53 AM,55.9,46.0,69,30.09,10.0,Calm,Calm,-,N/A,,Clear,0,2013-02-04 05:53:00
1:53 AM,57.9,46.0,65,30.09,10.0,NW,6.9,-,N/A,,Clear,310,2013-02-04 06:53:00
2:53 AM,57.0,46.0,67,30.09,10.0,NW,4.6,-,N/A,,Clear,310,2013-02-04 07:53:00
3:53 AM,55.0,46.9,74,30.09,10.0,NNW,5.8,-,N/A,,Clear,330,2013-02-04 08:53:00
5:53 AM,55.0,42.1,62,30.11,10.0,NW,5.8,-,N/A,,Clear,320,2013-02-04 10:53:00
6:53 AM,54.0,37.0,53,30.12,10.0,NW,3.5,-,N/A,,Partly Cloudy,320,2013-02-04 11:53:00
7:53 AM,55.0,37.9,53,30.13,10.0,NW,6.9,-,N/A,,Partly Cloudy,320,2013-02-04 12:53:00
8:53 AM,59.0,37.0,44,30.14,10.0,Calm,Calm,-,N/A,,Partly Cloudy,0,2013-02-04 13:53:00
9:53 AM,64.9,37.9,37,30.15,10.0,Calm,Calm,-,N/A,,Clear,0,2013-02-04 14:53:00
10:53 AM,69.1,39.0,33,30.13,10.0,SSW,3.5,-,N/A,,Clear,210,2013-02-04 15:53:00
11:53 AM,71.1,41.0,34,30.11,10.0,Calm,Calm,-,N/A,,Partly Cloudy,0,2013-02-04 16:53:00
12:53 PM,73.0,48.9,42,30.08,10.0,Variable,4.6,-,N/A,,Partly Cloudy,0,2013-02-04 17:53:00
1:53 PM,72.0,48.9,44,30.06,10.0,East,9.2,-,N/A,,Partly Cloudy,100,2013-02-04 18:53:00
2:53 PM,72.0,52.0,49,30.04,10.0,SE,9.2,-,N/A,,Partly Cloudy,140,2013-02-04 19:53:00
3:53 PM,72.0,51.1,48,30.04,10.0,SE,11.5,-,N/A,,Scattered Clouds,130,2013-02-04 20:53:00
4:53 PM,71.1,53.1,53,30.04,10.0,SE,6.9,-,N/A,,Mostly Cloudy,140,2013-02-04 21:53:00
5:53 PM,70.0,54.0,57,30.05,10.0,SE,4.6,-,N/A,,Mostly Cloudy,140,2013-02-04 22:53:00
6:53 PM,69.1,52.0,54,30.06,10.0,SSE,4.6,-,N/A,,Mostly Cloudy,150,2013-02-04 23:53:00
7:53 PM,66.9,52.0,59,30.07,10.0,Calm,Calm,-,N/A,,Partly Cloudy,0,2013-02-05 00:53:00
8:53 PM,64.9,52.0,63,30.08,10.0,SSW,3.5,-,N/A,,Partly Cloudy,200,2013-02-05 01:53:00
9:53 PM,64.0,51.1,63,30.08,10.0,Calm,Calm,-,N/A,,Clear,0,2013-02-05 02:53:00
10:53 PM,64.9,51.1,61,30.08,10.0,South,4.6,-,N/A,,Clear,170,2013-02-05 03:53:00
11:53 PM,62.1,52.0,70,30.07,10.0,Calm,Calm,-,N/A,,Partly Cloudy,0,2013-02-05 04:53:00